Location: Newark
(33.6333°S, 78.8500°W)
Time: 10:46:20
(UTC+00:00)

Courier 1B - Pass Details

Date: 24 September 2019
Orbit: 962 x 1209 km, 28.3° (Epoch: 14 October)

Event Time Altitude Azimuth Distance (km) Brightness Sun altitude
Rises 04:15:24 0° 278° (W) 3,825 - -53.9°
Reaches altitude 10° 04:20:07 10° 306° (NW) 2,805 - -54.2°
Maximum altitude 04:22:41 12° 328° (NNW) 2,603 - -54.4°
Drops below altitude 10° 04:25:13 10° 351° (N) 2,744 - -54.6°
Sets 04:29:44 0° 20° (NNE) 3,649 - -54.9°
